Tracking 33747 objects as of 12-Apr-2026
HD Live streaming from Space Station
objects crossing your sky now

OBJECT G

Track OBJECT G now!
10-day predictions


NORAD ID: 67680
Int'l Code: 2026-023G
Perigee: 485.8 km
Apogee: 515.2 km
Inclination: 96.6 °
Period: 94.5 minutes
Semi major axis: 6871 km
RCS: Unknown
Launch date: February 5, 2026
Source: Commonwealth of Independent States (former USSR) (CIS)
Launch site: PLESETSK MISSILE AND SPACE COMPLEX (PKMTR)
Your satellite tracking list
Your tracking list is empty




NASA's NSSDC Master Catalog

Two Line Element Set (TLE):
1 67680U 26023G   26101.15929846  .00011158  00000-0  45794-3 0  9992
2 67680  96.6195 172.7902 0021427   7.9891 352.1685 15.24147769  9783
Source of the keplerian elements: AFSPC